Location: Hackbridge
(51.3833°N, 0.1500°W)
Time: 04:43:25
(UTC+00:00)

STARLINK-61 - Pass Details

Date: 13 October 2019
Orbit: 530 x 533 km, 53.0° (Epoch: 14 November)

Event Time Altitude Azimuth Distance (km) Brightness Sun altitude
Rises 19:31:07 0° 252° (WSW) 2,672 8.0 -22.3°
Reaches altitude 10° 19:33:20 10° 252° (WSW) 1,783 7.0 -22.6°
Enters shadow 19:37:09 79° 250° (WSW) 549 3.5 -23.2°
